Location: Palau
(42.3086°N, 3.1507°E)
Time: 23:14:48
(UTC+00:00)

Cosmos 1674 - Pass Details

Date: 26 May 2020
Orbit: 495 x 517 km, 82.5° (Epoch: 05 July)

Event Time Altitude Azimuth Distance (km) Brightness Sun altitude
Exits shadow 00:53:11 28° 309° (NW) 981 4.2 -24.6°
Drops below altitude 10° 00:55:44 10° 347° (NNW) 1,721 6.1 -24.4°
Sets 00:58:03 0° 358° (N) 2,615 7.4 -24.3°
